Tracking 30746 objects as of 19-Jun-2025
HD Live streaming from Space Station
objects crossing your sky now

STARLINK 1030

Track STARLINK 1030 now!
10-day predictions
STARLINK 1030 is classified as:


NORAD ID: 44735
Int'l Code: 2019-074Y
Perigee: 374.7 km
Apogee: 383.0 km
Inclination: 53.1 °
Period: 92.0 minutes
Semi major axis: 6749 km
RCS: Unknown
Launch date: November 11, 2019
Source: United States (US)
Launch site: AIR FORCE EASTERN TEST RANGE (AFETR)
Your satellite tracking list
Your tracking list is empty




NASA's NSSDC Master Catalog

Two Line Element Set (TLE):
1 44735U 19074Y   25170.25002315  .00207997  00000-0  19877-2 0  9995
2 44735  53.0535 298.6116 0006157 281.6580 255.4727 15.65537155309072
Source of the keplerian elements: AFSPC